Location: Newark
(41.0400°S, 62.7845°W)
Time: 07:19:22
(UTC+00:00)

Envisat - Pass Details

Date: 23 October 2021
Orbit: 764 x 766 km, 98.2° (Epoch: 30 November)

Event Time Altitude Azimuth Distance (km) Brightness Sun altitude
Rises 07:01:42 0° 60° (ENE) 3,234 6.5 -22.2°
Reaches altitude 10° 07:04:48 10° 80° (E) 2,317 6.0 -21.7°
Maximum altitude 07:07:55 17° 118° (ESE) 1,910 6.0 -21.3°
Drops below altitude 10° 07:11:03 10° 156° (SSE) 2,334 6.4 -20.8°
Sets 07:14:10 0° 175° (S) 3,270 6.9 -20.3°
